Location: Hains Lake
(37.8540°N, 99.8578°W)
Time: 16:44:57
(UTC+00:00)

Vanguard 1 - Pass Details

Date: 30 November 2022
Orbit: 649 x 3831 km, 34.2° (Epoch: 31 January)

Event Time Altitude Azimuth Distance (km) Brightness Sun altitude
Exits shadow 11:49:56 16° 238° (WSW) 3,049 12.2 -20.4°
Maximum altitude 11:54:04 22° 205° (SSW) 3,148 12.5 -19.6°
Drops below altitude 10° 12:03:05 10° 161° (SSE) 5,023 14.1 -17.9°
Sets 12:09:25 0° 149° (SSE) 6,658 15.0 -16.6°
